GFSMA_925_temp_057.txt.gz
Temp
25 26 26 24 26 26 27 26 26 26 26 27 25 26 27 26 27 26 22 22 21 20 20 20 19 19 19 19 20 19 20 20 20 20 19 19 20 19 19 19 19 19 19
25 25 26 25 26 26 27 26 26 27 27 27 27 26 25 26 25 25 24 22 22 22 21 21 20 19 20 20 20 20 20 20 20 20 20 20 19 19 19 19 19 19 19
25 25 26 25 26 25 26 26 27 27 28 27 26 26 26 26 26 25 24 24 23 22 22 22 21 20 20 20 20 20 20 20 20 20 20 20 20 20 19 19 19 19 19
24 24 26 26 27 26 26 25 27 27 28 28 26 26 26 26 26 26 24 24 24 24 22 22 22 21 21 20 20 20 20 20 20 20 20 19 19 19 19 19 19 19 19
24 25 27 25 25 26 27 27 27 27 28 28 26 27 27 27 26 26 26 26 25 24 23 23 23 23 22 21 20 20 20 20 20 20 20 20 20 20 19 19 19 20 20
24 25 25 25 25 26 27 27 27 27 28 28 29 27 27 27 27 27 27 27 25 26 24 24 23 23 23 22 21 20 20 20 20 20 20 20 20 20 20 20 20 20 21
24 24 25 25 25 25 25 26 27 26 28 28 29 28 27 27 27 28 28 28 27 27 26 26 25 24 23 23 22 22 21 21 21 21 21 21 21 21 21 21 21 20 20
25 25 24 25 25 26 26 26 26 26 28 28 27 28 28 28 29 29 28 28 27 28 27 26 25 24 25 24 22 23 22 22 22 21 21 21 21 21 21 21 21 20 20
25 26 25 24 25 25 26 25 25 26 27 28 27 27 29 24 29 29 27 28 27 28 27 26 26 25 24 25 24 23 23 23 22 22 22 22 22 21 21 21 21 20 20
26 26 25 25 25 25 25 25 25 26 26 28 28 28 27 27 26 26 29 29 28 27 27 27 27 26 25 25 25 24 24 23 23 23 22 22 22 22 21 21 21 20 20
26 26 25 25 25 25 25 24 25 25 27 27 29 29 28 28 28 28 30 30 29 29 28 27 28 28 26 26 26 24 24 24 23 23 23 23 22 22 22 21 21 21 20
26 26 26 24 25 25 25 25 25 25 25 27 27 29 29 29 29 30 31 29 30 29 29 29 28 28 28 27 26 25 25 24 24 24 23 23 23 22 22 22 21 21 21
29 27 26 25 25 25 25 25 24 24 25 26 26 28 29 29 29 30 30 31 30 30 30 29 29 28 28 28 27 26 26 25 25 24 24 23 23 23 22 22 22 21 21
29 27 26 26 25 26 25 25 25 25 26 25 25 25 28 28 29 29 29 29 30 31 30 29 30 29 29 28 28 27 26 26 25 25 24 24 24 23 23 23 22 22 22
29 29 27 26 26 26 26 25 26 25 25 25 25 25 25 28 29 29 29 29 29 30 31 28 30 29 29 29 28 27 26 25 25 25 24 24 24 24 23 23 23 22 22
28 28 27 27 26 26 26 25 27 26 26 26 26 26 26 27 28 28 28 29 29 29 30 30 31 30 29 29 28 27 26 26 25 25 25 25 24 24 24 23 23 23 23
27 26 27 26 26 26 26 25 26 27 26 26 26 27 26 26 27 29 29 28 29 29 29 30 30 30 29 27 27 26 26 26 27 27 26 26 26 26 25 24 23 23 23
26 26 26 26 26 26 26 25 25 27 27 26 26 26 26 26 25 26 27 28 28 29 28 28 28 28 28 28 28 27 26 26 27 27 27 27 26 26 26 25 25 24 23
25 26 26 25 25 26 26 26 26 26 26 26 26 26 26 26 26 27 27 28 29 28 27 27 28 29 29 29 29 28 28 28 27 28 28 28 28 27 26 26 26 26 25
25 25 26 26 26 26 26 26 26 26 26 26 26 26 26 26 26 26 26 26 26 26 28 28 28 29 30 30 30 30 30 30 30 30 30 30 29 29 28 27 27 26 26
25 25 25 26 26 26 26 26 26 26 26 26 27 26 26 26 27 26 27 27 27 27 28 29 29 30 31 31 30 29 29 29 30 29 29 29 29 29 29 29 28 27 27
26 25 26 26 26 27 28 27 27 27 27 26 26 26 27 27 26 26 26 26 26 25 25 27 28 29 28 28 29 28 28 28 28 28 28 27 27 27 27 27 27 27 27
26 26 26 26 26 26 28 28 27 27 27 27 26 26 27 28 27 26 26 26 25 25 25 24 24 25 25 25 25 25 26 26 26 26 25 26 26 26 26 27 27 27 27
26 26 26 26 26 26 26 27 27 27 27 27 27 27 26 27 27 28 27 27 26 25 25 26 25 25 23 24 24 25 25 24 24 26 27 26 26 27 28 28 27 26 25
26 26 26 26 26 26 27 27 26 26 26 26 26 26 27 27 26 26 26 26 26 26 27 27 27 27 26 26 26 25 24 25 26 26 26 25 26 26 26 25 26 25 25
26 27 27 26 26 26 26 26 26 26 27 26 26 25 26 26 26 26 26 25 25 25 26 26 26 27 27 27 26 25 24 24 23 25 25 24 25 25 25 25 26 26 25

GFSMA_925_temp_060.txt.gz
Temp
24 24 24 25 24 24 25 25 26 24 24 26 26 26 27 25 24 23 23 22 21 21 20 20 20 20 20 20 20 19 19 20 19 20 20 20 20 19 19 19 19 19 19
25 25 25 25 24 26 25 25 26 26 26 25 26 26 26 25 24 23 23 23 22 22 21 21 21 21 20 20 20 19 20 20 20 20 20 20 19 19 19 19 19 19 19
25 25 24 25 25 26 26 27 27 27 26 27 26 25 26 26 25 24 23 23 23 22 22 22 22 22 21 20 20 20 20 20 20 20 20 19 19 19 19 19 19 19 19
24 25 25 24 26 25 27 26 27 27 27 26 26 26 26 26 25 25 24 23 23 22 23 23 22 22 22 21 20 20 20 20 20 20 20 20 20 19 19 19 19 19 19
24 23 25 25 25 25 26 27 27 27 28 27 27 26 26 26 25 25 25 25 24 24 23 23 23 23 22 22 21 20 20 20 20 20 20 20 20 20 20 20 20 20 20
24 24 24 26 25 25 26 27 27 27 27 28 27 27 27 27 27 26 26 25 25 24 24 24 24 23 23 22 22 22 21 20 20 21 20 20 21 21 20 20 21 21 21
25 24 25 25 25 26 26 26 27 27 27 28 28 28 27 27 28 27 27 27 27 25 25 25 25 23 23 23 22 23 22 21 21 21 21 21 21 21 21 21 21 21 20
25 25 25 26 25 26 26 26 27 26 27 28 27 26 25 27 28 28 28 28 28 27 26 26 25 24 24 23 23 24 23 22 22 22 22 22 22 21 21 21 21 21 21
26 25 25 25 26 25 25 25 25 25 26 27 27 27 24 24 26 28 28 27 28 28 27 26 26 25 25 23 24 24 24 23 23 23 23 23 22 22 22 21 21 21 21
26 25 25 25 25 25 25 26 25 25 26 27 27 28 27 27 24 24 28 27 28 28 27 27 26 26 25 25 24 24 24 24 24 23 23 23 23 23 22 22 21 21 21
26 26 25 25 25 25 25 25 25 25 25 26 27 28 28 28 28 26 25 27 28 28 28 28 27 26 26 26 25 25 25 25 24 24 24 23 23 23 23 22 22 21 21
26 26 26 25 25 25 25 25 25 25 25 26 26 27 28 28 29 28 27 29 28 29 29 28 28 28 27 27 26 26 26 25 25 25 24 24 23 23 23 23 22 22 21
26 26 26 25 25 25 24 24 24 25 25 25 26 27 27 29 29 29 29 29 29 29 29 29 29 28 28 28 28 27 27 26 26 25 25 24 24 24 23 23 23 22 22
28 27 26 26 25 25 25 24 24 24 25 25 26 26 27 27 29 29 29 29 25 28 30 29 30 29 29 28 28 28 27 27 26 26 25 25 24 24 23 23 23 22 22
28 28 27 26 26 25 25 25 25 25 25 25 25 26 26 27 27 29 29 29 28 25 26 29 30 30 29 29 28 28 27 27 26 26 25 25 25 24 24 24 24 23 23
28 27 26 26 26 26 26 25 25 26 25 25 25 25 26 27 27 28 28 28 29 29 25 29 29 30 29 29 29 28 27 27 26 26 26 26 26 26 25 25 24 24 23
28 28 27 27 26 26 26 26 26 26 26 26 26 26 26 26 26 27 28 28 28 29 28 29 29 29 29 28 28 28 28 27 27 26 26 27 26 26 26 26 25 25 24
27 27 27 27 26 26 26 26 25 26 26 26 26 26 26 26 26 26 26 27 27 28 27 27 28 28 28 28 28 28 29 28 27 27 27 28 28 27 27 27 27 26 26
26 26 26 26 26 26 26 26 25 25 26 26 26 26 26 26 26 26 26 26 27 28 27 27 26 27 28 28 29 29 29 29 29 28 28 29 29 29 29 28 28 27 26
26 26 26 26 25 25 26 26 26 25 25 26 26 26 26 26 26 26 26 26 26 26 26 26 27 27 28 29 29 29 28 29 29 28 28 28 28 28 28 27 27 27 26
26 25 25 26 25 25 25 26 26 26 25 25 26 26 26 26 26 26 26 26 26 26 26 26 27 28 28 28 28 28 28 27 27 27 27 27 27 27 26 27 27 26 27
26 25 25 25 26 25 26 26 26 26 26 26 26 26 26 26 26 26 26 26 26 26 26 25 25 25 26 26 26 26 25 25 25 25 26 25 25 26 26 26 27 27 27
26 25 25 25 25 26 26 27 27 26 26 26 26 26 26 26 26 26 27 27 26 26 26 26 24 24 24 25 24 24 24 24 24 25 24 24 25 26 26 26 27 27 26
25 26 25 25 25 25 26 27 28 27 26 26 26 26 26 26 27 27 27 26 26 26 26 26 26 26 26 26 26 26 25 25 25 25 25 25 25 25 25 25 26 25 25
26 26 25 25 25 26 26 26 27 27 26 26 27 27 27 26 26 27 27 27 27 26 26 26 26 26 26 26 26 25 24 24 24 25 25 24 24 24 24 25 25 25 24
26 26 26 26 26 25 26 26 26 26 26 26 26 26 26 26 27 26 26 26 25 26 26 25 26 26 26 26 26 26 26 24 23 24 25 24 23 24 24 25 24 24 24

GFSMA_925_temp_063.txt.gz
Temp
24 24 24 23 23 23 24 23 24 25 23 25 25 24 25 25 24 23 23 22 22 21 20 20 20 20 20 20 20 19 19 19 19 20 20 20 19 19 19 19 19 19 19
24 23 24 24 24 24 25 25 23 25 25 25 26 24 25 24 25 24 24 23 22 22 21 21 21 21 20 20 20 20 20 20 20 20 20 20 19 19 19 19 19 19 19
24 24 23 24 24 25 26 25 26 25 25 25 26 25 24 24 25 24 24 23 23 23 22 22 22 21 21 21 21 21 20 20 20 20 20 20 20 20 19 19 19 19 19
24 24 25 25 25 25 26 27 26 25 25 26 26 25 25 25 25 24 24 24 24 23 23 22 22 22 22 21 21 20 20 20 20 20 20 20 20 20 20 20 20 20 20
25 25 25 25 25 26 26 26 26 26 25 26 26 26 25 26 25 25 24 24 24 24 23 23 23 22 22 21 21 20 21 21 20 20 20 20 20 20 20 20 20 20 21
24 25 25 25 25 26 26 27 26 27 26 27 26 26 26 26 26 25 25 24 24 24 24 24 23 23 23 22 21 21 21 21 21 21 21 21 21 21 21 21 21 21 21
24 25 25 25 26 26 26 26 26 26 26 26 26 25 26 26 26 25 25 25 25 25 24 24 24 24 23 23 23 23 22 22 21 21 21 22 22 22 21 21 21 21 21
24 25 25 25 25 26 25 26 26 26 26 27 27 25 23 26 27 27 26 26 26 26 25 24 24 24 24 23 23 24 24 23 23 23 22 22 22 22 22 22 21 21 21
25 25 25 25 25 25 25 25 26 26 25 26 27 27 23 23 25 27 27 27 27 26 26 25 25 25 24 24 24 24 24 24 24 24 24 23 23 23 23 22 22 21 21
25 25 25 25 25 25 25 25 25 25 25 26 26 27 27 27 24 23 27 27 28 27 27 26 26 26 25 25 25 24 24 25 25 24 24 24 24 23 23 22 22 22 21
26 25 25 25 25 25 25 25 25 25 25 25 26 26 27 27 27 25 22 26 27 27 27 27 27 26 26 25 25 25 25 25 25 25 25 24 24 24 23 23 22 22 22
26 25 25 25 25 25 25 25 25 25 25 25 26 26 26 27 27 26 23 24 27 28 28 28 28 27 27 27 26 26 26 26 26 26 25 25 25 24 24 23 23 23 22
26 26 25 25 25 25 24 24 24 24 25 25 26 26 26 26 27 28 27 26 26 28 28 28 28 28 28 28 27 27 27 27 26 26 26 25 25 25 24 24 23 23 22
26 26 26 25 25 25 25 24 24 24 25 25 26 26 27 27 27 28 28 27 23 25 27 29 29 29 28 28 28 28 27 27 27 27 26 26 25 25 25 24 24 23 23
27 27 26 26 26 25 25 25 25 25 25 25 25 26 27 28 27 27 28 28 27 22 22 28 28 29 29 29 28 28 28 28 27 27 27 26 25 25 25 25 24 24 23
27 27 26 26 26 25 25 25 25 25 25 25 25 25 26 27 27 27 27 28 28 27 22 28 28 28 28 28 28 28 28 28 28 27 27 27 27 26 26 26 25 25 24
27 28 26 26 26 25 25 25 25 25 25 25 25 25 25 26 27 27 26 26 27 28 26 28 28 28 28 28 29 28 28 28 28 28 28 28 27 27 27 27 27 27 26
27 27 27 26 26 25 26 25 25 25 25 25 25 25 25 25 26 26 26 26 26 26 26 26 27 28 27 27 28 28 28 28 28 28 28 28 27 27 27 27 27 26 26
27 27 26 26 26 26 26 26 25 25 25 25 26 26 26 26 25 25 26 26 26 26 26 25 26 26 26 27 28 28 28 28 28 27 26 27 27 27 27 26 27 26 26
27 27 27 26 27 26 26 26 25 25 25 25 25 25 26 26 26 26 26 26 26 26 26 26 26 26 26 27 27 26 27 27 27 27 27 27 26 26 26 26 26 26 26
26 26 26 26 26 26 26 26 25 25 25 25 26 26 25 26 26 26 26 26 25 25 25 25 25 25 25 25 25 26 25 25 25 26 25 25 25 25 25 25 25 25 25
25 26 26 26 25 25 26 26 26 25 25 25 25 25 26 26 26 26 26 26 26 25 25 25 25 24 25 25 26 25 24 23 23 25 25 24 24 24 25 25 25 25 26
24 24 25 24 25 25 25 25 25 25 25 25 25 25 25 25 25 26 26 26 26 26 26 26 25 25 24 26 25 25 25 24 23 24 24 24 24 24 25 25 24 24 24
24 24 24 24 24 24 25 25 25 25 25 26 26 26 26 25 26 25 26 26 26 26 26 26 26 26 26 26 25 26 25 23 23 24 24 23 24 24 24 25 24 24 23
24 24 24 24 24 24 24 25 25 26 26 25 26 26 26 26 26 26 26 26 26 26 26 26 26 25 26 26 25 25 23 22 22 23 25 24 24 24 24 24 24 23 22
25 24 24 24 24 24 24 25 25 25 26 25 25 26 26 26 26 26 26 26 25 26 26 26 26 26 25 25 25 25 25 23 22 23 25 24 24 23 23 24 23 22 22

GFSMA_925_temp_069.txt.gz
Temp
23 23 23 23 23 24 24 24 24 23 23 23 23 24 23 23 22 22 21 21 20 20 20 20 20 19 20 20 20 20 20 20 20 19 19 19 19 19 19 19 19 19 19
23 23 23 23 23 24 24 24 24 24 24 23 23 24 24 23 23 22 21 21 21 21 20 20 21 20 20 20 20 20 20 20 20 19 19 19 19 19 19 19 19 18 18
24 24 24 24 24 24 24 24 24 24 24 24 24 23 23 24 23 23 23 22 22 21 21 21 20 20 20 20 20 20 20 20 20 20 19 19 19 19 19 19 19 19 19
24 24 24 24 24 24 24 24 24 24 24 24 23 23 23 23 23 23 23 23 22 22 22 21 21 21 21 20 19 20 20 20 20 20 20 20 20 20 19 19 20 19 20
24 24 24 24 24 24 25 24 25 25 24 24 23 23 23 23 23 23 23 23 23 22 22 22 22 22 22 21 20 20 20 20 21 20 20 20 21 21 20 20 20 20 20
24 24 24 24 24 24 25 25 24 25 24 24 24 24 24 23 23 23 24 23 23 23 23 23 23 22 22 22 22 21 21 21 21 21 21 21 22 22 22 21 21 21 20
24 24 24 24 24 24 25 25 25 25 24 24 24 24 24 24 24 24 24 24 24 24 23 23 23 23 23 22 22 22 22 23 23 22 23 23 23 23 22 22 22 21 21
24 24 24 24 24 25 25 25 25 24 24 25 24 23 20 24 25 25 24 24 25 24 24 24 24 24 23 23 23 23 23 24 24 24 24 24 24 23 23 23 22 22 21
24 24 25 25 24 25 25 25 25 25 25 25 24 24 20 20 21 25 25 25 25 25 25 25 24 24 24 24 24 24 24 24 24 25 25 24 24 24 24 23 23 23 22
24 24 24 25 25 25 25 25 25 26 26 26 25 24 24 24 21 21 25 26 26 25 25 25 25 25 25 25 25 25 25 25 25 25 25 24 24 24 24 23 23 23 23
24 24 24 24 24 25 25 25 25 25 25 26 25 25 25 25 25 22 21 24 25 26 26 26 26 26 26 26 26 26 26 26 26 25 25 25 24 24 24 24 23 23 23
24 24 24 24 25 25 25 25 25 25 25 25 25 25 26 26 25 23 20 22 23 27 27 27 27 27 27 27 27 26 26 26 26 26 26 25 25 24 24 23 23 23 23
25 24 24 24 24 25 24 24 24 24 25 25 25 25 25 25 25 25 24 22 22 26 27 28 28 27 27 27 27 27 27 27 27 27 27 26 26 26 24 24 24 24 23
25 25 24 24 24 24 24 24 24 24 24 25 25 25 25 25 25 25 26 25 21 23 26 26 27 28 27 27 27 27 27 27 27 27 27 27 26 26 25 25 24 24 24
25 25 25 25 24 24 24 24 24 24 24 24 25 25 25 25 25 25 25 26 25 21 21 27 27 27 27 27 27 27 27 27 27 27 26 26 26 26 26 25 25 24 24
25 25 25 25 25 24 24 24 24 24 24 24 24 25 25 25 25 25 25 25 25 25 21 26 27 27 27 27 27 26 27 27 27 27 27 27 26 26 25 24 24 24 24
25 25 25 25 25 25 24 24 24 24 24 24 24 24 25 25 25 25 25 25 25 24 23 25 25 26 26 26 27 27 27 26 26 26 27 26 26 25 24 24 24 23 24
25 25 25 25 25 25 25 24 24 24 24 24 24 24 24 24 24 25 25 25 25 24 24 23 25 25 25 26 26 26 26 26 26 26 26 26 25 24 24 24 23 23 24
25 25 25 25 25 25 25 25 25 24 24 24 24 24 24 24 24 24 24 25 25 24 24 24 24 25 25 25 25 25 25 25 26 26 26 25 25 25 24 23 23 23 23
25 25 25 25 25 26 26 26 25 25 24 24 24 24 25 25 25 25 25 25 25 24 24 24 24 24 24 24 24 24 25 25 25 25 26 25 25 25 24 23 23 23 23
26 26 25 25 25 25 25 26 26 25 25 25 24 24 24 25 25 25 24 24 25 24 24 24 24 24 24 24 24 24 23 24 25 24 25 25 25 25 23 23 22 23 23
26 25 25 25 25 25 25 25 26 25 25 25 25 25 25 25 25 25 24 24 24 24 24 24 23 23 23 24 24 24 23 22 22 23 23 25 24 24 23 22 22 22 22
24 24 24 24 24 25 25 25 25 25 25 25 25 25 25 25 25 25 25 24 24 24 24 24 23 23 23 24 24 24 24 23 22 23 22 23 25 24 23 22 22 22 22
23 23 23 23 23 24 25 25 25 25 25 25 25 25 25 25 25 25 25 24 24 24 25 24 24 24 24 25 24 24 23 22 23 24 23 21 24 24 22 22 22 22 21
22 22 22 23 23 23 23 24 25 25 24 24 25 25 25 25 25 25 24 24 24 25 25 25 25 25 25 25 24 23 23 22 21 22 23 22 23 23 22 21 21 22 21
22 22 22 22 23 23 23 23 23 23 23 23 23 23 24 25 25 25 24 24 23 25 25 25 25 25 25 25 25 24 24 22 21 21 24 23 23 23 22 21 21 21 20

GFSMA_925_temp_075.txt.gz
Temp
21 21 21 21 22 22 22 22 22 22 22 22 22 21 22 21 21 21 21 20 20 20 20 20 19 19 19 19 19 19 19 18 19 19 19 19 19 20 20 20 20 20 20
23 22 22 22 22 22 22 22 23 22 22 22 22 21 21 22 21 21 21 21 21 20 20 20 20 19 19 19 19 19 19 19 20 20 20 19 19 19 19 20 20 20 20
23 23 22 22 23 23 23 23 23 23 23 23 22 22 22 21 22 21 21 21 21 21 21 20 20 20 20 19 19 19 19 20 20 20 20 20 19 19 20 20 20 21 20
23 22 22 23 23 23 23 23 23 23 23 23 23 23 22 22 22 22 21 21 21 21 21 22 21 21 21 20 19 20 20 20 20 20 21 20 20 20 20 20 21 21 21
23 23 23 23 24 24 23 23 23 24 24 24 24 23 23 23 22 23 22 22 22 21 22 22 22 22 22 22 21 21 21 21 21 21 21 21 21 21 21 21 21 21 21
23 23 23 23 24 24 24 24 24 24 23 23 24 24 24 23 23 23 23 23 23 22 22 22 22 22 23 22 22 22 22 22 22 22 22 22 22 22 22 22 22 21 21
23 23 23 23 24 24 24 24 23 23 23 24 24 25 25 24 24 24 24 24 24 23 23 22 22 22 23 23 23 23 23 23 23 23 23 23 23 23 23 23 23 22 22
23 23 24 24 24 23 25 24 25 24 23 24 25 25 27 27 26 25 24 24 24 24 24 23 23 23 23 23 24 24 24 24 23 23 23 23 23 23 23 23 23 23 22
23 24 23 23 24 24 23 24 25 24 25 23 24 25 27 27 26 25 25 25 26 24 25 25 24 24 25 24 24 24 25 25 25 24 24 24 24 24 24 23 23 23 22
23 24 24 24 24 24 24 24 25 24 25 25 23 23 24 23 27 28 27 26 25 26 25 25 25 25 26 25 25 26 26 26 25 25 25 25 24 24 24 24 24 24 23
23 23 23 24 24 24 24 24 25 25 24 25 25 24 23 24 23 26 28 27 27 26 26 26 26 27 27 27 27 27 27 26 26 26 26 25 25 25 25 25 24 24 23
23 23 23 23 24 24 24 24 24 24 24 24 24 24 25 26 26 26 27 26 26 27 26 26 26 27 27 26 26 27 27 26 26 26 26 25 26 26 25 25 24 24 24
23 23 23 23 24 24 24 24 24 24 24 24 24 24 24 24 24 24 25 27 27 27 27 26 26 26 26 26 26 27 26 26 26 26 26 26 26 26 24 24 24 24 23
24 24 24 24 24 24 24 24 23 23 23 23 23 24 24 24 23 24 25 26 28 28 27 26 26 26 26 26 26 26 25 26 26 25 25 26 25 25 24 24 24 24 24
24 25 24 24 24 24 24 24 23 23 24 23 23 23 23 24 23 24 23 24 26 28 29 27 27 26 25 25 25 25 25 26 26 25 26 25 25 24 24 24 24 24 23
25 23 24 24 24 24 24 24 23 23 23 23 23 22 23 24 23 23 24 24 24 25 28 26 26 25 25 25 26 25 25 25 25 26 25 25 24 24 24 24 23 23 23
25 25 24 24 24 24 24 24 24 22 22 22 22 22 22 22 24 24 23 24 24 24 26 27 24 24 25 24 25 25 25 25 26 25 25 25 24 24 24 23 23 23 23
25 25 25 24 23 23 24 24 24 23 24 23 23 22 23 23 22 23 23 23 24 24 24 25 25 25 24 23 23 23 24 25 24 26 26 25 24 24 24 23 23 23 22
24 24 24 25 24 23 23 24 24 24 23 23 23 23 23 23 23 24 23 24 24 24 23 24 25 25 24 24 24 25 24 24 25 25 25 25 23 24 24 23 22 22 22
24 23 24 24 25 24 23 23 23 23 23 23 23 23 23 23 23 23 23 23 23 23 24 24 25 25 25 25 24 25 26 26 25 25 25 25 25 24 24 23 22 22 22
24 24 23 23 23 24 24 24 24 23 23 23 23 23 23 23 24 24 24 24 23 23 25 25 25 26 26 26 25 25 25 25 26 24 24 26 26 25 23 22 22 22 21
22 23 22 23 23 24 25 25 25 24 24 23 24 23 23 24 25 25 24 24 24 23 23 24 25 26 25 24 25 25 25 25 26 26 23 25 26 25 24 21 22 22 21
22 22 22 22 22 23 24 24 25 25 24 24 24 24 24 25 25 24 24 25 25 24 24 23 23 24 24 24 24 23 24 24 24 25 24 25 26 26 23 22 23 22 21
22 22 22 22 22 23 24 25 25 25 24 24 24 24 24 24 24 24 24 24 24 24 24 25 24 23 23 23 23 23 23 22 23 24 24 24 26 26 24 22 23 22 21
21 21 22 22 21 22 24 25 24 22 24 23 23 23 24 24 24 26 25 24 24 24 25 24 25 24 25 25 24 23 24 25 26 26 26 24 26 25 24 23 20 23 22
22 22 22 22 22 22 23 24 24 22 23 24 24 23 23 24 24 25 25 24 24 24 24 25 24 24 25 25 25 24 23 24 26 26 26 25 26 25 26 23 22 20 20